When you browse on this site, cookies collect data to enhance your experience and personalize the content and advertising you see.
Visit our Privacy Policy to learn more. By continuing to use the site, you agree to this use of cookies and data.
  • en Suisse
  • Liste des pays
  • À 7 jours
  • Température de l'eau
  • Carte satellitaire
  • Carte météo
  • Widgets météo
  • user-avatar
    Se connecter

    Météo par heure à Hobart

    Ce jour, 16 Juin, Dimanche

    Heure Température Précipitation Vent Pression Humidité
    00:00 +6°C° 0 mm 1 m/s 751 mmHg 86%
    01:00 +6°C° 0 mm 1 m/s 751 mmHg 88%
    02:00 +5°C° 0 mm 1 m/s 751 mmHg 88%
    03:00 +5°C° 0 mm 1 m/s 751 mmHg 88%
    04:00 +4°C° 0 mm 2 m/s 751 mmHg 87%
    05:00 +4°C° 0 mm 2 m/s 751 mmHg 88%
    06:00 +5°C° 0 mm 1 m/s 751 mmHg 88%
    07:00 +5°C° 0 mm 1 m/s 751 mmHg 88%
    08:00 +6°C° 0 mm 1 m/s 751 mmHg 83%
    09:00 +7°C° 0 mm 1 m/s 751 mmHg 78%
    10:00 +8°C° 0 mm 1 m/s 751 mmHg 73%
    11:00 +9°C° 0 mm 1 m/s 751 mmHg 68%
    12:00 +11°C° 0 mm 1 m/s 751 mmHg 63%
    13:00 +12°C° 0 mm 1 m/s 751 mmHg 57%
    14:00 +12°C° 0 mm 1 m/s 751 mmHg 61%
    15:00 +11°C° 0 mm 1 m/s 751 mmHg 65%
    16:00 +11°C° 0 mm 1 m/s 750 mmHg 69%
    17:00 +9°C° 0 mm 1 m/s 751 mmHg 74%
    18:00 +8°C° 0 mm 1 m/s 751 mmHg 79%
    19:00 +7°C° 0 mm 1 m/s 751 mmHg 84%
    20:00 +7°C° 0 mm 1 m/s 751 mmHg 85%
    21:00 +5°C° 0 mm 2 m/s 751 mmHg 87%
    22:00 +5°C° 0 mm 2 m/s 751 mmHg 89%
    23:00 +5°C° 0 mm 2 m/s 751 mmHg 89%

    Demain, 17 Juin, Lundi

    Heure Température Précipitation Vent Pression Humidité
    00:00 +5°C° 0 mm 2 m/s 751 mmHg 90%
    01:00 +4°C° 0 mm 2 m/s 751 mmHg 90%
    02:00 +4°C° 0 mm 2 m/s 750 mmHg 90%
    03:00 +4°C° 0 mm 2 m/s 750 mmHg 89%
    04:00 +4°C° 0 mm 2 m/s 750 mmHg 88%
    05:00 +4°C° 0 mm 2 m/s 750 mmHg 89%
    06:00 +4°C° 0 mm 2 m/s 750 mmHg 90%
    07:00 +5°C° 0 mm 2 m/s 750 mmHg 91%
    08:00 +6°C° 0 mm 2 m/s 750 mmHg 86%
    09:00 +7°C° 0 mm 2 m/s 750 mmHg 81%
    10:00 +9°C° 0 mm 2 m/s 750 mmHg 77%
    11:00 +10°C° 0 mm 2 m/s 749 mmHg 72%
    12:00 +13°C° 0 mm 2 m/s 749 mmHg 67%
    13:00 +14°C° 0 mm 3 m/s 748 mmHg 62%
    14:00 +14°C° 0 mm 2 m/s 748 mmHg 66%
    15:00 +13°C° 0 mm 2 m/s 748 mmHg 71%
    16:00 +13°C° 0 mm 2 m/s 747 mmHg 75%
    17:00 +12°C° 0 mm 2 m/s 747 mmHg 79%
    18:00 +10°C° 0 mm 3 m/s 747 mmHg 82%
    19:00 +9°C° 0 mm 3 m/s 747 mmHg 86%
    20:00 +8°C° 0 mm 3 m/s 747 mmHg 85%
    21:00 +8°C° 0 mm 3 m/s 747 mmHg 84%
    22:00 +8°C° 0 mm 3 m/s 746 mmHg 82%
    23:00 +8°C° 0 mm 3 m/s 746 mmHg 82%

    Après-demain, 18 Juin, Mardi

    Heure Température Précipitation Vent Pression Humidité
    00:00 +8°C° 0 mm 3 m/s 746 mmHg 81%
    01:00 +7°C° 0 mm 3 m/s 746 mmHg 80%
    02:00 +7°C° 0 mm 3 m/s 745 mmHg 80%
    03:00 +8°C° 0 mm 2 m/s 745 mmHg 80%
    04:00 +8°C° 0 mm 2 m/s 744 mmHg 80%
    05:00 +8°C° 0 mm 2 m/s 744 mmHg 81%
    06:00 +9°C° 0 mm 1 m/s 744 mmHg 83%
    07:00 +9°C° 0 mm 1 m/s 744 mmHg 84%
    08:00 +9°C° 0.2 mm 1 m/s 744 mmHg 84%
    09:00 +10°C° 0.2 mm 1 m/s 744 mmHg 84%
    10:00 +10°C° 0.2 mm 1 m/s 743 mmHg 85%
    11:00 +11°C° 0.1 mm 1 m/s 743 mmHg 83%
    12:00 +11°C° 0.1 mm 1 m/s 743 mmHg 81%
    13:00 +12°C° 0.1 mm 1 m/s 743 mmHg 79%
    14:00 +9°C° 1.7 mm 3 m/s 743 mmHg 83%
    15:00 +7°C° 1.7 mm 5 m/s 743 mmHg 87%
    16:00 +4°C° 1.7 mm 7 m/s 743 mmHg 92%
    17:00 +4°C° 1.7 mm 6 m/s 743 mmHg 92%
    18:00 +5°C° 1.7 mm 5 m/s 744 mmHg 93%
    19:00 +5°C° 1.7 mm 5 m/s 745 mmHg 93%
    20:00 +5°C° 1 mm 5 m/s 745 mmHg 93%
    21:00 +5°C° 1 mm 5 m/s 745 mmHg 92%
    22:00 +5°C° 1 mm 5 m/s 746 mmHg 92%
    23:00 +5°C° 0.2 mm 5 m/s 746 mmHg 91%

    19 Juin, Mercredi

    Heure Température Précipitation Vent Pression Humidité
    00:00 +5°C° 0.2 mm 5 m/s 746 mmHg 90%
    01:00 +5°C° 0.2 mm 5 m/s 747 mmHg 89%
    02:00 +3°C° 0.1 mm 5 m/s 747 mmHg 89%
    03:00 +3°C° 0.1 mm 5 m/s 747 mmHg 89%
    04:00 +3°C° 0.1 mm 5 m/s 748 mmHg 89%
    05:00 +3°C° 0.1 mm 5 m/s 748 mmHg 89%
    06:00 +2°C° 0.1 mm 5 m/s 749 mmHg 89%
    07:00 +2°C° 0.1 mm 5 m/s 749 mmHg 89%
    08:00 +3°C° 0 mm 4 m/s 750 mmHg 85%
    09:00 +4°C° 0 mm 4 m/s 750 mmHg 82%
    10:00 +4°C° 0 mm 4 m/s 750 mmHg 79%
    11:00 +5°C° 0.1 mm 4 m/s 751 mmHg 75%
    12:00 +6°C° 0.1 mm 4 m/s 751 mmHg 71%
    13:00 +6°C° 0.1 mm 4 m/s 751 mmHg 67%
    14:00 +6°C° 0 mm 4 m/s 751 mmHg 69%
    15:00 +5°C° 0 mm 3 m/s 751 mmHg 71%
    16:00 +5°C° 0 mm 3 m/s 751 mmHg 74%
    17:00 +4°C° 0 mm 3 m/s 751 mmHg 77%
    18:00 +4°C° 0 mm 2 m/s 752 mmHg 81%
    19:00 +3°C° 0 mm 2 m/s 752 mmHg 85%
    20:00 +3°C° 0 mm 2 m/s 752 mmHg 87%
    21:00 +2°C° 0 mm 2 m/s 753 mmHg 88%
    22:00 +2°C° 0 mm 2 m/s 753 mmHg 90%
    23:00 +2°C° 0 mm 2 m/s 753 mmHg 91%

    20 Juin, Jeudi

    Heure Température Précipitation Vent Pression Humidité
    00:00 +2°C° 0 mm 2 m/s 753 mmHg 92%
    01:00 +1°C° 0 mm 2 m/s 753 mmHg 93%
    02:00 +1°C° 0 mm 2 m/s 753 mmHg 93%
    03:00 +1°C° 0 mm 2 m/s 753 mmHg 93%
    04:00 +1°C° 0 mm 2 m/s 753 mmHg 92%
    05:00 +1°C° 0 mm 2 m/s 753 mmHg 92%
    06:00 +1°C° 0 mm 2 m/s 753 mmHg 92%
    07:00 +1°C° 0 mm 2 m/s 754 mmHg 91%
    08:00 +3°C° 0 mm 1 m/s 754 mmHg 85%
    09:00 +4°C° 0 mm 1 m/s 754 mmHg 79%
    10:00 +6°C° 0 mm 1 m/s 754 mmHg 73%
    11:00 +7°C° 0 mm 1 m/s 754 mmHg 68%
    12:00 +8°C° 0 mm 1 m/s 753 mmHg 63%
    13:00 +9°C° 0 mm 1 m/s 753 mmHg 57%
    14:00 +9°C° 0 mm 1 m/s 753 mmHg 62%
    15:00 +8°C° 0 mm 1 m/s 753 mmHg 66%
    16:00 +7°C° 0 mm 1 m/s 753 mmHg 70%
    17:00 +6°C° 0 mm 1 m/s 753 mmHg 75%
    18:00 +5°C° 0 mm 1 m/s 754 mmHg 80%
    19:00 +4°C° 0 mm 1 m/s 754 mmHg 85%
    20:00 +4°C° 0 mm 1 m/s 754 mmHg 86%
    21:00 +3°C° 0 mm 1 m/s 754 mmHg 86%
    22:00 +3°C° 0 mm 1 m/s 754 mmHg 87%
    23:00 +3°C° 0 mm 1 m/s 754 mmHg 87%

    21 Juin, Vendredi

    Heure Température Précipitation Vent Pression Humidité
    00:00 +3°C° 0 mm 1 m/s 754 mmHg 88%
    01:00 +2°C° 0 mm 1 m/s 754 mmHg 89%
    02:00 +2°C° 0 mm 1 m/s 754 mmHg 90%
    03:00 +2°C° 0 mm 1 m/s 754 mmHg 90%
    04:00 +2°C° 0 mm 1 m/s 754 mmHg 90%
    05:00 +2°C° 0 mm 1 m/s 754 mmHg 89%
    06:00 +2°C° 0 mm 1 m/s 755 mmHg 89%
    07:00 +2°C° 0 mm 1 m/s 755 mmHg 88%
    08:00 +3°C° 0.1 mm 1 m/s 755 mmHg 86%
    09:00 +4°C° 0.1 mm 1 m/s 755 mmHg 85%
    10:00 +5°C° 0.1 mm 1 m/s 756 mmHg 83%
    11:00 +6°C° 0.1 mm 1 m/s 755 mmHg 80%
    12:00 +7°C° 0.1 mm 1 m/s 755 mmHg 77%
    13:00 +8°C° 0.1 mm 1 m/s 755 mmHg 74%
    14:00 +8°C° 0.1 mm 1 m/s 756 mmHg 76%
    15:00 +7°C° 0.1 mm 1 m/s 756 mmHg 78%
    16:00 +7°C° 0.1 mm 1 m/s 756 mmHg 80%
    17:00 +6°C° 0 mm 1 m/s 756 mmHg 83%
    18:00 +5°C° 0 mm 1 m/s 757 mmHg 85%
    19:00 +4°C° 0 mm 1 m/s 757 mmHg 88%
    20:00 +3°C° 0 mm 1 m/s 757 mmHg 88%
    21:00 +3°C° 0 mm 1 m/s 758 mmHg 88%
    22:00 +3°C° 0 mm 1 m/s 758 mmHg 88%
    23:00 +3°C° 0 mm 1 m/s 758 mmHg 88%
    Voir plus